Location: Cruquius
(52.3348°N, 4.6319°E)
Time: 20:40:12
(UTC+00:00)

BREEZE-M R/B - Pass Details

Date: 12 May 2021
Orbit: 311 x 4501 km, 49.7° (Epoch: 19 June)

Event Time Altitude Azimuth Distance (km) Brightness Sun altitude
Rises 22:05:42 0° 267° (W) 2,037 6.0 -16.5°
Reaches altitude 10° 22:07:28 10° 261° (W) 1,224 4.8 -16.6°
Enters shadow 22:09:21 40° 222° (SW) 530 2.5 -16.7°
